PDT,Max TemperatureF,Mean TemperatureF,Min TemperatureF,Max Dew PointF,MeanDew PointF,Min DewpointF,Max Humidity, Mean Humidity, Min Humidity, Max Sea Level PressureIn, Mean Sea Level PressureIn, Min Sea Level PressureIn, Max VisibilityMiles, Mean VisibilityMiles, Min VisibilityMiles, Max Wind SpeedMPH, Mean Wind SpeedMPH, Max Gust SpeedMPH,PrecipitationIn, CloudCover, Events, WindDirDegrees
2013-10-1,58,49,40,42,34,27,80,59,38,30.11,30.03,29.93,10,10,10,17,5,23,0.00,5,,336
2013-10-2,62,46,29,31,27,17,92,57,21,30.11,30.03,29.90,10,10,10,28,7,37,0.00,0,,291
2013-10-3,54,42,30,30,26,23,89,59,29,30.34,30.20,30.09,10,10,10,18,8,24,0.00,3,,350
2013-10-4,61,43,24,26,20,15,88,53,17,30.43,30.38,30.34,10,10,10,15,5,21,0.00,0,,48
2013-10-5,74,46,18,24,16,10,74,42,9,30.45,30.36,30.27,10,10,4,13,3,21,0.00,0,,123
2013-10-6,77,51,25,22,17,14,57,34,11,30.27,30.16,30.06,10,10,10,17,5,22,0.00,0,,234
2013-10-7,67,45,23,30,21,15,70,43,16,30.09,30.04,29.97,10,10,10,21,6,25,0.00,0,,290
2013-10-8,57,38,18,35,26,16,96,62,28,30.11,29.99,29.81,10,10,10,18,5,25,T,1,,334
2013-10-9,50,42,33,33,31,29,89,68,46,29.91,29.84,29.76,10,10,10,21,11,30,0.02,5,,16
2013-10-10,61,45,28,32,27,18,92,57,21,30.06,29.95,29.90,10,10,10,14,3,17,0.00,0,,131
2013-10-11,62,41,19,34,25,16,92,58,23,30.14,30.07,30.02,10,10,3,10,2,14,0.00,0,,296
2013-10-12,57,39,21,39,29,17,88,59,30,30.06,30.00,29.92,10,10,5,25,4,30,0.13,5,Rain-Thunderstorm,360
2013-10-13,55,43,30,32,30,27,82,60,38,30.25,30.14,30.00,10,10,10,17,7,23,0.00,2,,8
2013-10-14,60,39,18,29,23,17,96,61,25,30.36,30.29,30.23,10,8,0,12,3,16,0.00,1,Fog,50
2013-10-15,61,40,18,28,21,15,88,54,19,30.35,30.27,30.20,10,10,3,17,2,23,0.00,0,,79
2013-10-16,65,41,16,23,18,13,84,50,15,30.25,30.19,30.14,10,10,7,15,3,21,0.00,0,,268
2013-10-17,68,44,19,28,22,16,91,56,20,30.27,30.20,30.13,10,10,6,12,2,15,0.00,0,,18
2013-10-18,71,45,19,26,20,15,84,48,12,30.30,30.21,30.12,10,10,7,7,1,10,0.00,0,,53
2013-10-19,75,48,20,23,18,14,77,44,11,30.29,30.20,30.12,10,10,10,7,1,8,0.00,0,,150
2013-10-20,74,48,22,26,20,14,74,43,12,30.23,30.14,30.06,10,10,8,9,2,13,0.00,0,,50
2013-10-21,75,49,22,28,23,17,81,48,14,30.21,30.14,30.05,10,10,5,8,1,9,0.00,0,,75
2013-10-22,77,51,25,29,22,17,81,47,13,30.21,30.11,30.04,10,10,5,7,1,10,0.00,0,,337
2013-10-23,75,49,22,28,17,13,74,42,9,30.16,30.06,29.99,10,10,10,5,1,5,0.00,0,,27
2013-10-24,75,49,23,24,18,15,69,41,12,30.16,30.09,30.02,10,9,4,13,1,14,0.00,0,,290
2013-10-25,73,48,22,21,17,13,68,40,12,30.29,30.23,30.15,10,10,6,7,1,9,0.00,0,,258
2013-10-26,74,47,20,22,14,11,73,41,9,30.38,30.24,30.13,10,10,7,2,1,3,0.00,0,,124
2013-10-27,66,43,19,32,20,8,89,52,15,30.07,29.80,29.56,10,10,6,39,7,49,T,3,,308
2013-10-28,42,37,31,34,29,25,89,74,59,29.87,29.66,29.53,10,7,2,18,6,26,0.02,8,Rain-Snow,359
2013-10-29,43,35,26,29,27,25,92,75,57,30.09,29.97,29.84,10,9,2,7,1,17,T,8,Snow,198
2013-10-30,49,33,16,30,25,14,92,71,49,30.27,30.17,30.09,10,9,4,8,1,12,0.00,3,,140
2013-10-31,61,39,17,35,25,15,92,66,39,30.36,30.28,30.22,10,7,2,8,1,69,0.00,0,,160